Flag for Greenland Weather past 2 weeks in Qaanaaq, Greenland

Now
7 °F

Clear.


Feels Like: -10 °F
Forecast: -1 / 6 °F
Wind: 14 mph from East

Location: Thule A. B.


UV Index: 0 (Low)

Visibility: N/A


Pressure: 29.80 "Hg

Humidity: 56%

Dew point: -6 °F

Location of QaanaaqLocation

Historic Weather in Qaanaaq

°F

Qaanaaq temperature yesterday

Maximum temperature yesterday: 14 °F (at 1:58 AM)
Minimum temperature yesterday: 7 °F (at 6:58 AM)
Average temperature yesterday: 11 °F

Past Weeks' High & Low Weather Summary

 TemperatureHumidityPressure
High21 °F (Apr 1, 4:58 PM)92% (Apr 14, 3:58 AM)30.14 "Hg (Apr 14, 3:58 AM)
Low-15 °F (Apr 7, 2:58 AM)44% (Apr 4, 3:58 PM)29.07 "Hg (Apr 11, 5:58 AM)
Average1 °F66%29.76 "Hg
* Reported Apr 1 3:58 AM — Apr 16 3:58 AM, Qaanaaq, Weather by CustomWeather, © 2014

Note: Actual official high and low records may vary slightly from our data, if they occured in-between our weather recording intervals... More about our weather records

Advertising

Historic Weather Conditions — Data for Previous 24 hours

 ConditionsComfort  
Time TempWeatherWind HumidityBarometerVisibility
3:58 AM
Apr 16
7 °FClear.17 mph56%29.79 "HgN/A
2:58 AM7 °FClear.20 mph61%29.78 "HgN/A
1:58 AM7 °FSunny.21 mph56%29.77 "HgN/A
12:58 AM9 °FScattered clouds.16 mph56%29.77 "HgN/A
11:58 PM
Apr 15
9 °FSunny.16 mph61%29.75 "HgN/A
10:59 PM10 °FSunny.15 mph56%29.76 "HgN/A
8:58 PM12 °FSunny.14 mph52%29.69 "HgN/A
7:58 PM12 °FBroken clouds.7 mph79%29.68 "HgN/A
6:58 PM14 °FPassing clouds.12 mph62%29.66 "HgN/A
5:58 PM14 °FScattered clouds.7 mph62%29.64 "HgN/A
4:58 PM14 °FPartly sunny.13 mph52%29.60 "HgN/A
3:58 PM12 °FSunny.5 mph62%29.60 "HgN/A
3:00 PM12 °FLight snow. Partly sunny.No wind67%29.63 "HgN/A
2:58 PM12 °FScattered clouds.1 mph62%29.59 "HgN/A
1:58 PM12 °FSunny.5 mph57%29.58 "HgN/A
12:58 PM12 °FOvercast.No wind62%29.59 "HgN/A
11:58 AM10 °FPartly sunny.17 mph67%29.58 "HgN/A
10:58 AM10 °FSunny.18 mph67%29.58 "HgN/A
9:58 AM9 °FSunny.21 mph78%29.58 "HgN/A
8:58 AM9 °FHaze.26 mph78%29.58 "Hg3 mi
7:58 AM9 °FIce fog.31 mph78%29.58 "Hg1 mi
6:58 AM7 °FClear.32 mph85%29.56 "Hg1 mi
5:58 AM9 °FFrigid.33 mph85%29.57 "HgN/A
5:03 AM10 °FOvercast.20 mph85%29.62 "Hg2 mi
Weather by CustomWeather, © 2014

See weather overview